Weather History for Waseca, MN

Change the Weather History Date:

Friday, December 7, 2012

  Actual Average Record
Temperature  
Mean Temperature 30 °F -  
Max Temperature 33 °F 24 °F 53 °F (1946)
Min Temperature 26 °F 9 °F -21 °F (1972)
Degree Days  
Heating Degree Days 36    
Moisture  
Dew Point 24 °F    
Average Humidity 76    
Maximum Humidity 87    
Minimum Humidity 65    
Precipitation  
Precipitation 0.00 in - - ()
Sea Level Pressure  
Sea Level Pressure 30.02 in    
Wind  
Wind Speed 8 mph (NNE)    
Max Wind Speed 15 mph    
Max Gust Speed 17 mph    
Visibility 8 miles    
Events Snow    
Averages and records for this station are not official NWS values.
T = Trace of Precipitation, MM = Missing Value Source: NWS Daily Summary

Daily Weather History Graph

Daily Weather History Graph

Search for Another Location

Airport:

Trip Planner

Search our weather history database for the weather conditions in past years. The results will help you decide how hot, cold, wet, or windy it might be!

Date:

Astronomy

Dec. 07, 2012 Rise Set
Actual Time 7:35 AM CST 4:35 PM CST
Civil Twilight 7:03 AM CST 5:08 PM CST
Nautical Twilight 6:26 AM CST 5:45 PM CST
Astronomical Twilight 5:51 AM CST 6:20 PM CST
Moon 12:43 AM CST (12/7) 12:43 PM CST (12/7)
Length of Visible Light 10h 05m
Length of Day
8h 59m
Last Quarter, 38% of the Moon is Illuminated
Dec 7
Last Quarter
Dec 13
New
Dec 19
First Quarter
Dec 28
Full
Jan 4
Last Quarter

Hourly Weather History & Observations

Time (CST) Temp. Windchill Dew Point Humidity Pressure Visibility Wind Dir Wind Speed Gust Speed Precip Events Conditions
12:13 AM 33.8 °F 27.0 °F 26.6 °F 75% 30.00 in 10.0 mi NW 8.1 mph - N/A   Clear
12:33 AM 32.0 °F 24.2 °F 23.0 °F 69% 30.01 in 10.0 mi NW 9.2 mph - N/A   Scattered Clouds
12:53 AM 32.0 °F 23.6 °F 23.0 °F 69% 30.01 in 10.0 mi NW 10.4 mph - N/A   Clear
1:13 AM 32.0 °F 23.6 °F 23.0 °F 69% 30.02 in 10.0 mi NW 10.4 mph - N/A   Clear
1:33 AM 32.0 °F 24.8 °F 23.0 °F 69% 30.03 in 10.0 mi NNW 8.1 mph - N/A   Clear
1:54 AM 32.0 °F 23.6 °F 23.0 °F 69% 30.04 in 10.0 mi NNW 10.4 mph - N/A   Clear
2:13 AM 32.0 °F 25.6 °F 23.0 °F 69% 30.04 in 10.0 mi NNW 6.9 mph - N/A   Scattered Clouds
2:33 AM 32.0 °F 27.5 °F 23.0 °F 69% 30.04 in 10.0 mi NNW 4.6 mph - N/A   Scattered Clouds
2:53 AM 30.2 °F 25.4 °F 21.2 °F 69% 30.04 in 10.0 mi NNW 4.6 mph - N/A   Clear
3:14 AM 30.2 °F 25.4 °F 23.0 °F 75% 30.03 in 10.0 mi North 4.6 mph - N/A   Clear
3:33 AM 30.2 °F 25.4 °F 23.0 °F 75% 30.03 in 10.0 mi NNE 4.6 mph - N/A   Clear
3:53 AM 28.4 °F - 21.2 °F 74% 30.03 in 10.0 mi Calm Calm - N/A   Clear
4:13 AM 28.4 °F - 21.2 °F 74% 30.04 in 10.0 mi Calm Calm - N/A   Clear
4:33 AM 28.4 °F 24.6 °F 21.2 °F 74% 30.03 in 10.0 mi North 3.5 mph - N/A   Clear
4:54 AM 28.4 °F 22.2 °F 21.2 °F 74% 30.02 in 10.0 mi North 5.8 mph - N/A   Clear
5:13 AM 28.4 °F 22.2 °F 21.2 °F 74% 30.02 in 10.0 mi North 5.8 mph - N/A   Clear
5:33 AM 28.4 °F - 21.2 °F 74% 30.03 in 10.0 mi Calm Calm - N/A   Scattered Clouds
5:54 AM 28.4 °F 23.3 °F 21.2 °F 74% 30.03 in 10.0 mi North 4.6 mph - N/A   Clear
6:13 AM 28.4 °F 23.3 °F 21.2 °F 74% 30.03 in 10.0 mi North 4.6 mph - N/A   Clear
6:33 AM 26.6 °F 20.0 °F 21.2 °F 80% 30.03 in 10.0 mi North 5.8 mph - N/A   Clear
6:54 AM 26.6 °F 21.2 °F 19.4 °F 74% 30.01 in 10.0 mi NNE 4.6 mph - N/A   Clear
7:13 AM 26.6 °F 22.6 °F 21.2 °F 80% 30.01 in 10.0 mi NNE 3.5 mph - N/A   Clear
7:34 AM 26.6 °F 22.6 °F 19.4 °F 74% 30.01 in 10.0 mi NNE 3.5 mph - N/A   Clear
7:53 AM 26.6 °F 22.6 °F 19.4 °F 74% 30.02 in 10.0 mi North 3.5 mph - N/A   Clear
8:13 AM 26.6 °F - 21.2 °F 80% 30.01 in 10.0 mi Calm Calm - N/A   Mostly Cloudy
8:33 AM 28.4 °F 23.3 °F 23.0 °F 80% 30.01 in 10.0 mi North 4.6 mph - N/A   Overcast
8:53 AM 30.2 °F 21.9 °F 23.0 °F 75% 30.01 in 10.0 mi NNE 9.2 mph - N/A   Mostly Cloudy
9:13 AM 30.2 °F 23.4 °F 23.0 °F 75% 30.01 in 10.0 mi NNE 6.9 mph - N/A   Overcast
9:33 AM 30.2 °F 23.4 °F 23.0 °F 75% 30.01 in 10.0 mi NNE 6.9 mph - N/A   Overcast
9:53 AM 32.0 °F 24.8 °F 24.8 °F 75% 30.03 in 10.0 mi North 8.1 mph - N/A   Overcast
10:13 AM 32.0 °F 28.7 °F 24.8 °F 75% 30.04 in 10.0 mi NNE 3.5 mph - N/A   Overcast
10:34 AM 32.0 °F 28.7 °F 23.0 °F 69% 30.04 in 10.0 mi North 3.5 mph - N/A   Mostly Cloudy
10:53 AM 32.0 °F 28.7 °F 23.0 °F 69% 30.04 in 10.0 mi North 3.5 mph - N/A   Mostly Cloudy
11:14 AM 33.8 °F 28.6 °F 26.6 °F 75% 30.03 in 10.0 mi North 5.8 mph - N/A   Overcast
11:33 AM 33.8 °F 26.4 °F 24.8 °F 70% 30.01 in 10.0 mi North 9.2 mph - N/A   Overcast
11:54 AM 33.8 °F 25.8 °F 24.8 °F 70% 30.02 in 10.0 mi North 10.4 mph - N/A   Overcast
12:13 PM 33.8 °F 25.8 °F 24.8 °F 70% 30.01 in 10.0 mi North 10.4 mph - N/A   Overcast
12:33 PM 33.8 °F 25.8 °F 24.8 °F 70% 30.01 in 10.0 mi North 10.4 mph - N/A   Overcast
12:54 PM 33.8 °F 25.3 °F 23.0 °F 65% 30.01 in 10.0 mi North 11.5 mph - N/A   Mostly Cloudy
1:13 PM 33.8 °F 24.8 °F 23.0 °F 65% 30.01 in 10.0 mi North 12.7 mph - N/A   Overcast
1:33 PM 33.8 °F 23.9 °F 23.0 °F 65% 30.00 in 10.0 mi North 15.0 mph - N/A   Overcast
1:54 PM 33.8 °F 25.3 °F 23.0 °F 65% 30.00 in 10.0 mi North 11.5 mph - N/A   Overcast
2:13 PM 33.8 °F 24.3 °F 23.0 °F 65% 30.00 in 10.0 mi North 13.8 mph - N/A   Overcast
2:33 PM 33.8 °F 24.3 °F 23.0 °F 65% 30.01 in 10.0 mi North 13.8 mph - N/A   Overcast
2:54 PM 33.8 °F 25.3 °F 24.8 °F 70% 30.00 in 10.0 mi North 11.5 mph - N/A   Overcast
3:13 PM 33.8 °F 25.3 °F 24.8 °F 70% 30.00 in 10.0 mi NNE 11.5 mph - N/A   Overcast
3:34 PM 33.8 °F 23.9 °F 24.8 °F 70% 30.00 in 10.0 mi NNE 15.0 mph - N/A   Overcast
3:53 PM 33.8 °F 26.4 °F 26.6 °F 75% 29.99 in 10.0 mi NE 9.2 mph - N/A   Overcast
4:13 PM 33.8 °F 25.3 °F 26.6 °F 75% 29.99 in 10.0 mi NNE 11.5 mph 16.1 mph N/A   Overcast
4:33 PM 32.0 °F 22.5 °F 24.8 °F 75% 30.00 in 10.0 mi NNE 12.7 mph - N/A   Overcast
4:54 PM 32.0 °F 22.5 °F 26.6 °F 80% 29.99 in 4.0 mi NNE 12.7 mph - N/A Snow Light Snow
5:13 PM 32.0 °F 27.5 °F 26.6 °F 80% 30.01 in 3.0 mi NE 4.6 mph - N/A Snow Light Snow
5:33 PM 32.0 °F 24.8 °F 26.6 °F 80% 30.01 in 4.0 mi NE 8.1 mph - N/A Snow Light Snow
5:54 PM 32.0 °F 24.2 °F 28.4 °F 87% 30.00 in 3.0 mi NE 9.2 mph - N/A Snow Light Snow
6:14 PM 32.0 °F 23.0 °F 28.4 °F 87% 30.00 in 3.0 mi NE 11.5 mph - N/A Snow Light Snow
6:33 PM 32.0 °F 25.6 °F 28.4 °F 87% 30.01 in 3.0 mi NE 6.9 mph - N/A Snow Light Snow
7:14 PM 32.0 °F 22.1 °F 28.4 °F 87% 30.01 in 4.0 mi NNE 13.8 mph - N/A Snow Light Snow
7:33 PM 32.0 °F 23.0 °F 28.4 °F 87% 30.01 in 3.0 mi NE 11.5 mph - N/A Snow Light Snow
7:54 PM 32.0 °F 23.6 °F 28.4 °F 87% 30.01 in 4.0 mi NE 10.4 mph - N/A Snow Light Snow
8:14 PM 32.0 °F 24.2 °F 26.6 °F 80% 30.02 in 3.0 mi NE 9.2 mph - N/A Snow Light Snow
8:33 PM 32.0 °F 22.5 °F 26.6 °F 80% 30.02 in 2.5 mi NE 12.7 mph 17.3 mph N/A Snow Light Snow
8:53 PM 30.2 °F 21.3 °F 26.6 °F 86% 30.01 in 4.0 mi NE 10.4 mph - N/A Snow Light Snow
9:14 PM 30.2 °F 21.9 °F 26.6 °F 86% 30.02 in 7.0 mi NE 9.2 mph - N/A Snow Light Snow
9:33 PM 30.2 °F 21.3 °F 26.6 °F 86% 30.02 in 7.0 mi NNE 10.4 mph - N/A   Overcast
9:53 PM 30.2 °F 22.6 °F 26.6 °F 86% 30.01 in 7.0 mi NE 8.1 mph - N/A Snow Light Snow
10:13 PM 30.2 °F 21.3 °F 26.6 °F 86% 30.01 in 5.0 mi NE 10.4 mph - N/A Snow Light Snow
10:33 PM 30.2 °F 23.4 °F 26.6 °F 86% 30.01 in 7.0 mi NE 6.9 mph - N/A   Overcast
10:53 PM 30.2 °F 23.4 °F 26.6 °F 86% 30.01 in 5.0 mi NE 6.9 mph - N/A Snow Light Snow
11:14 PM 30.2 °F 21.9 °F 26.6 °F 86% 30.01 in 7.0 mi NNE 9.2 mph - N/A   Overcast
11:33 PM 30.2 °F 22.6 °F 26.6 °F 86% 30.02 in 10.0 mi NNE 8.1 mph - N/A   Overcast
11:53 PM 30.2 °F 23.4 °F 26.6 °F 86% 30.01 in 10.0 mi NNE 6.9 mph - N/A   Mostly Cloudy